Location: *
(48.9509°S, 160.7349°W)
Time: 00:04:27
(UTC+00:00)

Daily predictions for brighter satellites

Satellite Brightness Start Highest point End
(mag) Time Altitude Azimuth Time Altitude Azimuth Time Altitude Azimuth
USA 306 3.3 07:18:40 10° WNW 07:23:02 71° SSW 07:27:25 10° ESE
BREEZE M DEB (TANK) 1.3 07:26:14 10° W 07:29:00 77° S 07:31:09 10° E
H-2A R/B 4.3 07:29:07 10° N 07:33:09 51° W 07:37:14 10° SSW
Gbstr 26 Del rocket 3.2 07:29:29 10° W 07:33:16 61° S 07:37:09 10° ESE
Cosmos 2151 3.7 07:31:27 10° SSW 07:35:42 55° W 07:39:54 10° N
FREGAT/IRIS 2.1 07:33:35 10° SSE 07:36:00 57° E 07:38:22 10° N
Ariane Rocket 3.1 07:32:43 10° SSE 07:37:51 63° ENE 07:42:53 10° N
Cosmos 405 3.1 07:35:10 10° NNW 07:38:43 80° WSW 07:42:17 10° S
Cosmos 2056 Rocket 4.2 07:35:49 10° SSW 07:40:43 40° ESE 07:45:18 12° NE
Cosmos 1538 Rocket 4.3 07:36:44 10° NNW 07:42:02 75° WSW 07:47:28 10° SSE
FALCON 9 DEB 2.9 07:41:26 10° NW 07:44:39 65° NNE 07:47:55 10° ESE
FALCON 9 DEB 3.0 07:41:38 10° NW 07:44:50 59° NNE 07:48:04 10° ESE
H-2A R/B 4.2 07:41:09 10° S 07:45:32 29° WSW 07:49:49 10° WNW
Cosmos 2369 Rocket 4.3 07:41:45 10° SW 07:46:07 23° W 07:50:28 10° NNW
Resurs 1-3 3.7 07:42:28 10° SSE 07:46:54 57° E 07:51:16 10° N
Cosmos 2315 Rocket 4.5 07:42:00 10° NNE 07:47:49 43° E 07:53:45 10° SSE
OBJECT-B 1.1 07:46:39 10° S 07:49:58 70° WSW 07:53:13 10° NNW
BREEZE-M DEB (TANK) 3.9 07:35:28 10° W 07:50:59 85° S 07:55:06 10° E
Okean 3 Rocket 3.8 07:47:01 10° SSW 07:51:36 76° W 07:56:09 10° N
Cosmos 371 Rocket 3.4 07:47:36 10° SSW 07:52:35 74° ESE 07:56:53 14° NNE
Cosmos-2242 3.8 07:48:14 10° NNW 07:52:35 56° WSW 07:57:02 10° S
Cosmos 1553 Rocket 4.3 07:46:32 10° NNW 07:52:46 72° WSW 07:58:58 10° S
SPOT 3 Rocket 4.0 07:48:50 10° SSE 07:53:54 44° E 07:58:53 10° N
SAR-Lupe-2 4.2 07:53:15 15° NE 07:56:00 44° ESE 07:59:31 10° S
Cosmos 1633 3.7 07:53:01 10° SSW 07:56:31 43° W 08:00:00 10° NNW
Cosmos 1743 Rocket 4.4 07:53:43 10° S 07:58:00 38° ESE 08:01:17 16° NE
Meteor 2-3 Rocket 4.3 07:52:40 10° SSW 07:58:28 60° W 08:04:12 10° N
Gblst 52 Del rocket 4.4 07:53:14 10° WSW 07:59:03 82° NNW 08:05:09 12° ENE
ASTEX 1 3.5 07:54:29 11° NNE 07:59:07 63° E 08:04:03 10° S
Cosmos 1697 Rocket 4.3 07:55:25 10° SSW 08:00:07 26° SE 08:04:49 10° E
Cosmos 1766 Rocket 4.0 07:58:02 10° SSW 08:02:31 61° W 08:06:52 10° N
Cosmos 405 Rocket 3.3 08:03:50 10° SSW 08:07:47 60° W 08:11:38 11° N
Cosmos 2221 2.7 08:07:52 13° N 08:11:41 56° E 08:16:00 10° SSE
S3M 4.3 08:07:48 10° NNW 08:14:03 71° W 08:20:28 10° S
Cosmos 1606 4.3 08:13:28 17° ENE 08:14:57 20° E 08:17:56 10° SE
SL-4 R/B 2.5 08:11:13 10° W 08:15:20 59° S 08:19:08 10° ESE
Cosmos 1833 Rocket 4.2 08:13:27 15° ENE 08:15:22 18° E 08:19:00 10° ESE
Cosmos 883 Rocket 4.5 08:10:42 10° N 08:16:51 82° E 08:23:06 10° S
SPOT 1/Viking Rocket 4.3 08:13:37 10° SSE 08:18:31 37° E 08:21:50 18° NNE
Cosmos 389 Rocket 2.4 08:15:56 15° N 08:18:41 68° E 08:22:10 10° SSE
FALCON 9 DEB 3.0 08:16:21 10° WNW 08:19:37 83° SSW 08:22:56 10° ESE
Cosmos 1656 4.1 08:17:41 10° SSW 08:23:18 55° ESE 08:27:24 18° NE
Cosmos 1862 3.4 08:19:47 10° S 08:23:55 70° ESE 08:26:29 22° NNE
CENTAUR R/B 4.5 08:17:07 10° W 08:23:55 35° SSW 08:29:48 10° SE
USA 281 4.2 08:24:10 10° SE 08:29:38 26° E 08:32:40 19° NE
Cosmos 1842 Rocket 3.5 08:27:41 12° N 08:31:44 87° WSW 08:36:11 10° S
ARIANE 5 R/B 3.1 08:27:46 10° SSE 08:32:09 44° E 08:34:36 23° NNE
FALCON 9 DEB 3.4 08:32:35 10° WNW 08:35:50 64° SSW 08:39:06 10° ESE
USA 307 4.2 08:37:34 10° W 08:41:49 44° S 08:46:04 10° ESE
Terra 3.2 08:38:20 10° SE 08:42:12 23° E 08:43:40 20° ENE
Cosmos 304 Rocket 3.8 08:38:02 10° SSW 08:42:55 77° WNW 08:45:51 24° NNE
Meteor 2-2 Rocket 4.4 08:36:55 10° NNW 08:42:59 86° W 08:49:03 10° S
ERBS 3.4 08:39:50 10° WNW 08:43:11 48° SSW 08:46:34 10° SE
FALCON 9 DEB 4.1 08:41:49 10° WSW 08:45:17 48° S 08:48:24 12° E
GP-B 3.1 08:41:19 10° S 08:45:51 71° E 08:48:25 25° N
ATLAS 3B R/B 3.4 08:38:48 10° WNW 08:46:14 63° SW 08:53:33 10° SE
USA 215 4.5 08:42:05 15° N 08:46:33 29° NW 08:52:12 10° WSW
Sich 1 3.5 08:42:59 10° S 08:47:21 48° ESE 08:49:24 27° NE
Cosmos 332 Rocket 4.3 08:44:28 10° SSW 08:49:18 55° WNW 08:52:21 22° N
Resurs 01 Rocket 2.3 08:45:15 10° S 08:49:42 57° WSW 08:54:07 10° NNW
USA 308 4.2 08:46:19 10° WSW 08:50:33 43° S 08:54:47 10° ESE
Cosmos 1680 Rocket 4.1 08:46:12 10° NW 08:51:23 58° WSW 08:56:39 10° SSE
USA 305 4.2 08:47:26 10° WSW 08:51:38 43° S 08:55:50 10° ESE
Cosmos 1500 Rocket 3.8 08:47:17 10° SSW 08:51:45 66° W 08:54:30 22° N
USA 290 3.1 08:54:23 31° ENE 08:54:23 31° ENE 08:57:19 10° SE
Spot 2 Rocket 3.5 08:51:26 10° SSE 08:56:37 67° ENE 08:59:48 23° N
Cosmos 1420 Rocket 4.0 08:55:08 10° SSW 09:00:24 80° WNW 09:03:14 28° NNE
USA 306 4.2 08:59:18 10° WSW 09:03:29 42° S 09:07:40 10° ESE
Cosmos 1980 Rocket 3.3 08:58:15 10° SSW 09:03:30 37° SE 09:07:21 17° ENE
Cosmos 1151 Rocket 4.2 09:02:39 24° ENE 09:03:42 27° E 09:07:24 10° SSE
ATLAS CENTAUR R/B 4.5 09:01:54 10° WSW 09:06:45 32° NW 09:12:51 19° N
IGS 5A 4.4 09:05:34 10° S 09:09:38 46° WSW 09:13:20 12° NW
CARTOSAT-1 3.5 09:06:02 10° SSE 09:10:27 73° E 09:12:27 32° N
Cosmos 1607 3.9 09:06:41 10° SW 09:12:49 85° SE 09:16:19 27° NE
Exosat Rocket 3.9 09:10:34 10° SSW 09:15:46 70° WNW 09:19:13 27° N
USA 245 4.2 09:11:11 10° S 09:16:32 64° WSW 09:19:38 19° NNW
ERS-1 Rocket 3.0 09:12:37 10° SSE 09:17:43 66° ENE 09:20:07 31° N
Gbstr 26 Del rocket 3.0 09:16:30 10° WSW 09:20:19 67° SSE 09:23:30 17° E
FALCON 9 DEB 4.2 09:17:32 10° W 09:20:40 43° S 09:23:50 10° ESE
FALCON 9 DEB 4.1 09:17:43 10° W 09:20:54 45° SSW 09:24:05 10° ESE
Cosmos 2184 Rocket 4.1 09:15:33 10° SSW 09:22:03 79° W 09:25:51 26° N
Meteor 1-4 Rocket 2.5 09:24:50 44° NNW 09:25:55 86° WSW 09:29:34 10° S
SPOT 5 2.7 09:22:08 10° SSE 09:26:39 74° ENE 09:28:35 35° N
Cosmos 1452 Rocket 3.6 09:25:55 10° SSW 09:31:16 75° WNW 09:33:35 35° N
Geosat 4.1 09:29:55 34° N 09:32:04 66° WNW 09:37:09 10° SW
Cosmos 1470 Rocket 4.2 09:29:20 10° S 09:33:34 43° ESE 09:34:53 33° ENE
COSMOS 2406 3.1 09:30:22 25° NNW 09:33:48 76° ENE 09:39:32 10° SSE
Cosmos 1633 Rocket 3.0 09:33:26 10° S 09:37:57 81° E 09:39:19 44° NNE
CZ-4B DEB 4.5 09:34:46 10° S 09:38:08 71° WSW 09:38:47 52° NW
Cosmos 2292 4.2 09:39:35 66° E 09:39:35 66° E 09:42:44 10° SSE
EO 1 Del DPAF 3.2 09:38:59 50° N 09:39:51 73° WNW 09:43:42 10° SSW
Cosmos 2327 Rocket 4.5 09:33:46 10° S 09:39:59 84° W 09:43:05 32° N
Cosmos 1602 3.9 09:37:18 10° S 09:41:18 63° ESE 09:42:09 49° NE
Cosmos 1437 Rocket 4.3 09:43:19 23° E 09:43:34 23° E 09:46:45 10° SE
Cosmos 1697 Rocket 2.7 09:38:59 10° SSW 09:44:41 73° WNW 09:47:02 36° N
Thor Agena Rocket 4.3 09:42:13 26° NNW 09:44:45 44° W 09:49:45 10° SSW
Cosmos 1295 Rocket 4.4 09:38:33 10° S 09:44:47 89° E 09:47:45 33° N
Cosmos 292 Rocket 3.8 09:44:16 10° SSW 09:49:14 87° ESE 09:50:55 42° NNE
Meteor 1-20 Rocket 4.4 09:44:04 10° SSW 09:49:58 72° W 09:52:40 33° N
Cosmos 1606 4.0 09:48:26 22° NW 09:50:25 37° WSW 09:54:09 10° S
Cosmos 1812 4.2 09:51:02 24° E 09:51:15 24° E 09:54:26 10° SE
SL-4 R/B 2.0 09:51:15 10° WSW 09:55:12 71° SSE 09:56:45 33° E
CZ-4 R/B 4.3 09:53:36 33° ENE 09:55:19 49° ESE 09:59:58 10° S
FALCON 9 DEB 4.4 09:52:44 10° WSW 09:55:52 39° S 09:59:01 10° ESE
Cosmos 1500 3.9 09:52:18 10° S 09:56:03 42° ESE 09:56:43 38° ENE
Cosmos 2369 3.7 09:51:08 10° SSW 09:56:54 72° WNW 09:59:08 38° N
Lacrosse 5 3.3 09:58:47 21° ENE 09:58:47 21° ENE 10:01:45 10° ESE
PSLV R/B 3.5 09:56:49 49° NNE 09:57:57 80° ESE 10:02:24 10° SSW
Cosmos 1833 Rocket 2.7 09:55:06 25° NNW 09:58:33 84° WSW 10:04:18 10° SSE
Cosmos 1933 Rocket 4.0 09:54:16 10° S 09:58:45 53° ESE 10:00:00 40° NE
Cosmos 1900 4.3 09:53:55 10° SW 09:58:51 71° WNW 10:00:19 45° NNE
Cosmos 1666 Rocket 4.1 09:55:39 10° SSW 10:00:00 51° W 10:01:23 37° NW
Cosmos 2082 Rocket 2.3 09:58:05 38° N 10:00:04 59° ENE 10:05:40 10° SE
Nadezhda 1 Rocket 4.2 09:56:33 27° NNW 10:00:14 71° W 10:06:43 10° S
deb Kosmos-1763 4.1 10:01:34 58° NW 10:02:08 74° WSW 10:05:46 10° SSE
Meteor 1-14 Rocket 4.3 10:00:01 10° S 10:05:59 82° ESE 10:08:27 38° NNE
Cosmos 2218 Rocket 4.2 10:03:24 10° S 10:09:37 61° ESE 10:12:22 33° NE
Cosmos 2181 Rocket 4.3 10:07:22 34° NNE 10:10:05 59° E 10:16:28 10° SSE
FALCON 9 DEB 4.5 10:08:58 10° WSW 10:12:05 38° S 10:15:12 10° ESE
Cosmos 1867 4.1 10:08:03 10° SSW 10:13:24 56° SE 10:16:35 24° ENE
USA 281 3.4 10:08:01 10° SSE 10:14:40 73° WSW 10:19:31 20° NW
Cosmos 1933 4.4 10:14:10 28° WNW 10:15:42 40° WSW 10:19:39 10° S
Terra 2.5 10:15:31 10° S 10:20:13 50° WSW 10:22:33 27° NW
Cosmos 1302 Rocket 4.2 10:15:40 10° SSW 10:21:03 69° ESE 10:23:07 38° NE
Cosmos 1331 Rocket 4.1 10:16:44 10° SSW 10:21:57 66° WNW 10:23:30 44° N
FALCON 9 DEB 3.8 10:18:51 10° WSW 10:21:34 45° W 10:21:34 45° W
USA 307 3.8 10:18:05 10° WSW 10:22:25 52° SSE 10:26:43 10° E
SL-16 R/B 3.0 10:20:55 10° SSW 10:26:27 46° SE 10:30:00 21° ENE
Cosmos 2341 Rocket 4.1 10:23:11 10° SSW 10:29:28 69° W 10:32:08 36° NNW
Cosmos 1328 Rocket 4.2 10:29:01 35° NW 10:30:25 48° WSW 10:34:44 10° S
Cosmos 1782 3.4 10:30:07 42° WNW 10:31:02 52° WSW 10:35:01 10° S
USA 308 3.6 10:26:47 10° WSW 10:31:08 55° SSE 10:35:27 10° E
USA 305 3.6 10:27:50 10° WSW 10:32:10 56° SSE 10:36:28 10° E
Cosmos 2360 Rocket 3.9 10:27:48 10° SSW 10:32:42 28° SE 10:37:32 10° ENE
Cosmos 1110 Rocket 4.4 10:27:42 10° SSW 10:32:45 48° WNW 10:34:06 39° NNW
Cosmos 2322 Rocket 3.2 10:27:19 10° SSW 10:32:48 42° SE 10:36:46 18° ENE
Cosmos 2084 4.2 10:31:21 10° SW 10:35:34 48° SE 10:37:43 25° ENE
Resurs 1-4 Rocket 2.9 10:36:08 27° ENE 10:38:43 46° ESE 10:43:52 10° S
Cosmos 1151 Rocket 4.3 10:39:29 25° WNW 10:41:10 33° WSW 10:45:08 10° S
Cosmos 2278 4.1 10:37:53 10° SW 10:43:26 51° WNW 10:45:01 39° NNW
USA 306 3.4 10:39:38 10° WSW 10:43:59 61° SSE 10:48:10 11° E
Cosmos 2366 rocket 4.0 10:37:38 10° S 10:44:01 83° W 10:46:32 39° N
Cosmos 1869 Rocket 3.8 10:39:32 10° S 10:44:07 66° ESE 10:45:12 48° NE
CZ-2D R/B 2.7 10:42:41 29° NE 10:45:04 50° ESE 10:50:14 10° S
Meteor 1-11 Rocket 3.9 10:40:00 10° S 10:45:42 67° ESE 10:48:02 36° NNE
Cosmos 1980 Rocket 2.7 10:42:16 10° SW 10:47:38 45° WNW 10:49:05 37° NNW
Meteor 2-6 Rocket 4.2 10:45:54 41° N 10:48:03 89° E 10:53:47 10° SSE
Cosmos 2228 Rocket 3.1 10:50:15 55° N 10:51:14 80° E 10:55:51 10° SSE
Cosmos 1992 Rocket 4.5 10:48:46 10° SSW 10:53:59 57° ESE 10:56:27 30° NE
ADEOS II 3.6 10:50:22 14° ENE 10:53:59 30° ESE 10:58:34 10° S
Helios 1B rocket 2.4 10:54:07 60° NNE 10:54:50 84° ESE 10:59:02 10° SSW
Cosmos 1238 Rocket 2.9 10:51:52 10° S 10:55:23 62° E 10:55:51 56° ENE
SL-8 Rocket 4.3 10:49:50 10° SSW 10:55:57 57° W 10:58:26 35° NNW
Spot 4 3.8 10:51:33 10° SSE 10:56:30 90° E 10:57:53 48° NNW
FALCON 9 DEB 4.1 10:53:48 10° WSW 10:56:58 44° S 11:00:08 10° E
Meteor 1-5 Rocket 4.5 10:51:15 10° SSW 10:57:16 65° W 10:59:26 39° NNW
FALCON 9 DEB 4.2 10:54:06 10° WSW 10:57:16 43° S 11:00:27 10° E
NPP 4.1 10:56:17 30° NE 10:58:52 56° ESE 11:04:13 10° S
Gbstr 26 Del rocket 3.7 11:03:13 10° WSW 11:05:58 36° WNW 11:05:58 36° WNW
USA 81 4.0 11:04:08 10° S 11:09:31 87° W 11:11:14 45° N
Cosmos 1269 Rocket 4.2 11:09:32 36° NW 11:11:40 68° WSW 11:17:03 10° SSE
NOSS 3-1 (C) 4.2 11:05:30 18° NW 11:12:21 79° SW 11:19:54 10° SE
ALOS 2 2.6 11:09:32 10° SSE 11:14:03 81° ENE 11:15:00 55° N
Cosmos 1666 3.3 11:15:42 10° SSW 11:19:27 44° W 11:19:40 44° WNW
Cosmos 1437 Rocket 3.9 11:18:41 30° W 11:19:38 35° WSW 11:23:21 10° S
Cosmos 1536 2.7 11:15:35 10° S 11:19:42 86° WNW 11:20:15 66° N
Cosmos 1821 Rocket 3.9 11:19:07 10° S 11:25:23 89° WNW 11:28:08 36° N
Cosmos 1812 4.0 11:26:06 28° W 11:26:53 31° WSW 11:30:25 10° S
USA 229 DEB 3.9 11:22:15 24° NW 11:27:18 82° SW 11:34:36 10° SE
USA 229 3.9 11:22:22 24° NW 11:27:23 82° SW 11:34:42 10° SE
Cosmos 1707 Rocket 3.5 11:29:17 53° N 11:30:19 81° E 11:34:50 10° SSE
FALCON 9 DEB 3.7 11:28:58 10° WSW 11:32:13 55° SSE 11:35:29 10° E
Cosmos 2251 Rocket 3.8 11:31:47 40° NNE 11:33:32 59° ENE 11:38:51 10° SSE
SL-4 R/B 3.8 11:31:08 10° WSW 11:32:17 17° W 11:32:17 17° W
SL-19 R/B 4.5 11:33:59 39° NNW 11:36:00 60° WNW 11:41:57 10° SSW
Lacrosse 5 1.8 11:37:56 34° NW 11:40:14 88° SSW 11:45:27 10° SE
Cosmos 2333 Rocket 3.5 11:38:02 10° SSW 11:43:28 40° SE 11:48:50 10° ENE
Cosmos 2082 Rocket 3.7 11:39:54 11° WNW 11:44:33 30° SW 11:49:31 10° SSE
NOSS 3-1 (A) 4.2 11:38:32 21° NW 11:44:42 78° SW 11:52:14 10° SE
ATLAS CENTAUR R/B 4.4 11:41:57 10° SSW 11:45:33 21° SSE 11:49:01 10° ESE
SL-27 R/B 2.3 11:46:44 72° N 11:47:02 81° ENE 11:50:42 10° SSE
Cosmos 2219 Rocket 3.6 11:42:33 10° SSW 11:47:54 38° SE 11:53:10 10° ENE
FALCON 9 DEB 3.2 11:45:02 10° WSW 11:48:19 69° SSE 11:51:20 12° ENE
Cosmos 1733 Rocket 3.0 11:44:50 10° SSW 11:49:24 82° W 11:50:40 48° N
Meteor 1-29 3.8 11:53:39 37° W 11:53:39 37° W 11:56:49 10° SSW
Cosmos 1242 Rocket 3.2 11:53:12 41° W 11:53:36 42° WSW 11:57:05 10° S
